Starlink 31192

operational
NORAD ID: 58794 Int'l Des: 2024-012 Owner: SPXS Country: US Constellation: starlink
LEOCIRCULAR

About Starlink 31192

Description loading...

Live Position

Loading 3D Globe...

Upcoming Passes

Altitude History

Altitude vs Time

uPlot chart will show altitude changes over time

Two-Line Element Set

1 58794U 24012H 25305.34572604 .00001312 00000-0 57205-4 0 9998
2 58794 43.0002 170.3901 0000735 270.4379 89.6389 15.27559112101601
Epoch: Nov 1, 2025 • Age: 15 hours

Current Status

Altitude 486.3 km
Velocity 7.63 km/s
Sub-Earth Point 40.94°N, 105.47°W
Launch Date Jan 15, 2024
Age 1.7 years
Type internet

Technical Details

Classification Payload
Mass 730.00 kg
Dry Mass 700.00 kg
Total Mass 730.00 kg
Length 0.30 m
Diameter 4.10 m
Span 29.00 m
Shape Box + pan
Manufacturer SPXS
Bus Type Starlink V2M
Phase Status In Orbit
Owner/State SPXS/US

Large Constellations

Loading constellations...